This demonstration page uses our WeatherBlox Daily Observations layout. Learn more.

Left ArrowRight Arrow

39.12711, -84.51439

Hourly Observations for July 11, 2017

Temp ( °F °C ) Dew Point ( °F °C ) Humidity (%) Winds ( mph kmh ) Pressure ( in mb ) Visibility ( mi km ) Precip ( " mm )
12:53 am 00:53 Clear 78 25.6 69 20.6 74 74 SSW 12 19 29.92 1013 10 16 N/A
1:53 am 01:53 Clear 79 26.1 69 20.6 72 72 SSW 14 22 29.92 1013 10 16 N/A
2:53 am 02:53 Mostly Cloudy 79 26.1 70 21.1 74 74 SW 10 17 29.91 1013 10 16 N/A
3:53 am 03:53 Mostly Cloudy with Rain 77 25 71 21.7 82 82 WNW 5 7 29.95 1014 5 8 0.02 0.51
4:16 am 04:16 Mostly Cloudy with Nearby Thunderstorms 77 25 71 21.7 82 82 WSW 6 9 29.94 1014 9 14 0.02 0.51
4:40 am 04:40 Partly Cloudy with Light Rain 74 23.3 72 22.2 94 94 S 10 17 29.91 1013 10 16 0.04 1.02
4:53 am 04:53 Mostly Clear 74 23.3 72 22.2 94 94 S 9 15 29.91 1013 10 16 0.04 1.02
5:53 am 05:53 Clear 73 22.8 71 21.7 94 94 S 5 7 29.93 1013 10 16 N/A
6:53 am 06:53 Sunny 74 23.3 71 21.7 91 91 SSW 8 13 29.95 1014 10 16 N/A
7:53 am 07:53 Sunny 75 23.9 72 22.2 90 90 S 5 7 29.94 1014 10 16 N/A
8:53 am 08:53 Sunny 76 24.4 72 22.2 88 88 SSW 8 13 29.95 1014 10 16 N/A
9:53 am 09:53 Mostly Cloudy 76 24.4 72 22.2 88 88 SW 7 11 29.97 1015 10 16 N/A
10:24 am 10:24 Mostly Cloudy with Thunderstorms 77 25 72 22.2 85 85 W 12 19 30.00 1016 10 16 N/A
10:53 am 10:53 Partly Cloudy with Thunderstorms 75 23.9 69 20.6 82 82 W 14 22 29.99 1016 8 13 0.02 0.51
11:20 am 11:20 Partly Cloudy with Light Rain 74 23.3 68 20 82 82 WSW 8 13 30.00 1016 9 14 0.02 0.51
11:53 am 11:53 Mostly Cloudy with Light Rain 72 22.2 68 20 87 87 SW 13 20 30.02 1017 8 13 0.07 1.78
12:53 pm 12:53 Cloudy with Light Rain 73 22.8 69 20.6 87 87 SSW 3 6 29.98 1015 6 10 0.10 2.54
1:53 pm 13:53 Partly Cloudy with Light Rain 73 22.8 70 21.1 90 90 SE 5 7 29.99 1016 10 16 0.01 0.25
2:53 pm 14:53 Mostly Cloudy 74 23.3 70 21.1 88 88 W 13 20 30.10 1019 10 16 N/A
3:05 pm 15:05 Mostly Cloudy with Thunderstorms 73 22.8 70 21.1 90 90 WSW 14 22 30.09 1019 7 11 0.01 0.25
3:42 pm 15:42 Mostly Cloudy with Thunderstorms 72 22.2 69 20.6 91 91 WSW 6 9 30.06 1018 5 8 0.04 1.02
3:53 pm 15:53 Mostly Cloudy with Thunderstorms 71 21.7 68 20 90 90 SW 7 11 30.06 1018 4 6 0.07 1.78
4:35 pm 16:35 Mostly Cloudy with Light Rain 71 21.7 70 21.1 96 96 SSW 10 17 30.00 1016 10 16 0.04 1.02
4:53 pm 16:53 Sunny 72 22.2 70 21.1 94 94 S 12 19 30.00 1016 10 16 0.04 1.02
5:53 pm 17:53 Sunny 76 24.4 71 21.7 85 85 SSW 14 22 29.92 1013 10 16 N/A
6:53 pm 18:53 Sunny 80 26.7 72 22.2 76 76 VRB 5 7 29.96 1014 10 16 N/A
7:53 pm 19:53 Mostly Sunny 79 26.1 74 23.3 85 85 N N/A 29.98 1015 9 14 N/A
8:53 pm 20:53 Mostly Sunny 77 25 73 22.8 88 88 N N/A 29.99 1016 9 14 N/A
9:50 pm 21:50 Mostly Clear with Mist and Fog 72 22 72 22 100 100 N N/A 30.00 1016 2 3 N/A
10:00 pm 22:00 Clear with Patchy Fog 72 22.2 72 22.2 100 100 N N/A 30.00 1016 3 5 N/A
10:31 pm 22:31 Partly Cloudy with Mist and Fog 72 22.2 72 22.2 100 100 N N/A 30.00 1016 4 6 N/A
10:53 pm 22:53 Mostly Clear with Mist and Fog 71 21.7 71 21.7 100 100 SSW 3 6 30.03 1017 2 3 N/A
11:18 pm 23:18 Clear with Mist and Fog 71 21.7 71 21.7 100 100 N N/A 30.03 1017 3 5 N/A
11:53 pm 23:53 Clear with Mist and Fog 73 22.8 72 22.2 96 96 N N/A 30.04 1017 6 10 N/A

Powered by AerisWeather